Weather History for Oscoda, MI

Change the Weather History Date:

Saturday, November 19, 2011

  Actual Average Record
Temperature  
Mean Temperature 42 °F -  
Max Temperature 48 °F 42 °F 55 °F (1999)
Min Temperature 35 °F 29 °F 10 °F (2008)
Degree Days  
Heating Degree Days 24    
Moisture  
Dew Point 29 °F    
Average Humidity 58    
Maximum Humidity 76    
Minimum Humidity 46    
Precipitation  
Precipitation 0.00 in - - ()
Sea Level Pressure  
Sea Level Pressure 29.87 in    
Wind  
Wind Speed 12 mph (SSW)    
Max Wind Speed 16 mph    
Max Gust Speed 23 mph    
Visibility 10 miles    
Events Rain    
Averages and records for this station are not official NWS values.
T = Trace of Precipitation, MM = Missing Value Source: NWS Daily Summary

Daily Weather History Graph

Daily Weather History Graph

Search for Another Location

Airport:

Trip Planner

Search our weather history database for the weather conditions in past years. The results will help you decide how hot, cold, wet, or windy it might be!

Date:

Astronomy

Nov. 19, 2011 Rise Set
Actual Time 7:34 AM EST 5:02 PM EST
Civil Twilight 7:02 AM EST 5:34 PM EST
Nautical Twilight 6:27 AM EST 6:09 PM EST
Astronomical Twilight 5:52 AM EST 6:44 PM EST
Moon 12:39 AM EST (11/19) 1:32 PM EST (11/19)
Length of Visible Light 10h 31m
Length of Day
9h 28m
Last Quarter, 38% of the Moon is Illuminated
Nov 19
Last Quarter
Nov 25
New
Dec 2
First Quarter
Dec 10
Full
Dec 17
Last Quarter

Hourly Weather History & Observations

Time (EST) Temp. Windchill Dew Point Humidity Pressure Visibility Wind Dir Wind Speed Gust Speed Precip Events Conditions
12:13 AM 39.2 °F 31.6 °F 23.0 °F 52% 29.91 in 10.0 mi SSW 12.7 mph - N/A   Clear
12:34 AM 39.2 °F 31.6 °F 23.0 °F 52% 29.91 in 10.0 mi SSW 12.7 mph 20.7 mph N/A   Clear
12:53 AM 39.2 °F 31.6 °F 23.0 °F 52% 29.91 in 10.0 mi SSW 12.7 mph 19.6 mph N/A   Clear
1:13 AM 39.2 °F 32.0 °F 23.0 °F 52% 29.91 in 10.0 mi SSW 11.5 mph - N/A   Clear
1:33 AM 39.2 °F 31.6 °F 23.0 °F 52% 29.91 in 10.0 mi SSW 12.7 mph - N/A   Clear
1:53 AM 39.2 °F 30.8 °F 23.0 °F 52% 29.90 in 10.0 mi SSW 15.0 mph - N/A   Clear
2:14 AM 39.2 °F 31.6 °F 23.0 °F 52% 29.90 in 10.0 mi SSW 12.7 mph 20.7 mph N/A   Clear
2:33 AM 39.2 °F 30.8 °F 23.0 °F 52% 29.90 in 10.0 mi SSW 15.0 mph 19.6 mph N/A   Clear
2:53 AM 39.2 °F 31.2 °F 23.0 °F 52% 29.90 in 10.0 mi SSW 13.8 mph 19.6 mph N/A   Clear
3:13 AM 39.2 °F 32.5 °F 24.8 °F 56% 29.91 in 10.0 mi SSW 10.4 mph 18.4 mph N/A   Clear
3:33 AM 39.2 °F 32.0 °F 24.8 °F 56% 29.91 in 10.0 mi SSW 11.5 mph 19.6 mph N/A   Clear
3:53 AM 39.2 °F 31.2 °F 24.8 °F 56% 29.91 in 10.0 mi SSW 13.8 mph 21.9 mph N/A   Clear
4:14 AM 39.2 °F 30.8 °F 26.6 °F 61% 29.90 in 10.0 mi SSW 15.0 mph 19.6 mph N/A   Clear
4:33 AM 39.2 °F 32.0 °F 26.6 °F 61% 29.90 in 10.0 mi SSW 11.5 mph 18.4 mph N/A   Clear
4:53 AM 39.2 °F 32.0 °F 26.6 °F 61% 29.91 in 10.0 mi SSW 11.5 mph - N/A   Clear
5:13 AM 37.4 °F 29.3 °F 26.6 °F 65% 29.90 in 10.0 mi SSW 12.7 mph 18.4 mph N/A   Clear
5:33 AM 37.4 °F 29.8 °F 26.6 °F 65% 29.91 in 10.0 mi SSW 11.5 mph 16.1 mph N/A   Clear
5:54 AM 37.4 °F 31.4 °F 26.6 °F 65% 29.91 in 10.0 mi SSW 8.1 mph - N/A   Clear
6:13 AM 35.6 °F 29.9 °F 26.6 °F 70% 29.91 in 10.0 mi SW 6.9 mph - N/A   Scattered Clouds
6:33 AM 37.4 °F 32.8 °F 28.4 °F 70% 29.91 in 10.0 mi SW 5.8 mph - N/A   Mostly Cloudy
6:54 AM 37.4 °F 32.1 °F 26.6 °F 65% 29.91 in 10.0 mi SW 6.9 mph - N/A   Overcast
7:13 AM 39.2 °F 34.2 °F 26.6 °F 61% 29.91 in 10.0 mi SSW 6.9 mph - N/A   Overcast
7:33 AM 41.0 °F 35.8 °F 26.6 °F 57% 29.90 in 10.0 mi SSW 8.1 mph - N/A   Overcast
7:54 AM 42.8 °F 37.5 °F 26.6 °F 53% 29.90 in 10.0 mi SSW 9.2 mph - N/A   Overcast
8:14 AM 42.8 °F 36.6 °F 26.6 °F 53% 29.90 in 10.0 mi SSW 11.5 mph - N/A   Overcast
8:33 AM 42.8 °F 36.2 °F 26.6 °F 53% 29.91 in 10.0 mi SSW 12.7 mph - N/A   Overcast
8:54 AM 42.8 °F 37.0 °F 28.4 °F 57% 29.91 in 10.0 mi SSW 10.4 mph - N/A   Overcast
9:13 AM 42.8 °F 37.0 °F 28.4 °F 57% 29.91 in 10.0 mi SSW 10.4 mph - N/A   Mostly Cloudy
9:33 AM 42.8 °F 36.6 °F 28.4 °F 57% 29.90 in 10.0 mi SSW 11.5 mph - N/A   Mostly Cloudy
9:54 AM 44.6 °F 38.8 °F 28.4 °F 53% 29.90 in 10.0 mi SSW 11.5 mph 17.3 mph N/A   Overcast
10:13 AM 44.6 °F 38.4 °F 28.4 °F 53% 29.90 in 10.0 mi SSW 12.7 mph 18.4 mph N/A   Mostly Cloudy
10:33 AM 44.6 °F 38.1 °F 28.4 °F 53% 29.90 in 10.0 mi SSW 13.8 mph 17.3 mph N/A   Overcast
10:54 AM 46.4 °F 40.4 °F 28.4 °F 50% 29.90 in 10.0 mi SSW 13.8 mph - N/A   Overcast
11:13 AM 46.4 °F 41.1 °F 28.4 °F 50% 29.90 in 10.0 mi SW 11.5 mph 20.7 mph N/A   Overcast
11:33 AM 48.2 °F - 28.4 °F 46% 29.89 in 10.0 mi SW 9.2 mph - N/A   Overcast
11:54 AM 46.4 °F 41.1 °F 28.4 °F 50% 29.88 in 10.0 mi SSW 11.5 mph - N/A   Overcast
12:13 PM 46.4 °F 41.5 °F 28.4 °F 50% 29.88 in 10.0 mi SSW 10.4 mph - N/A   Overcast
12:33 PM 46.4 °F 40.4 °F 28.4 °F 50% 29.88 in 10.0 mi SW 13.8 mph 20.7 mph N/A   Overcast
12:54 PM 46.4 °F 41.9 °F 28.4 °F 50% 29.87 in 10.0 mi SSW 9.2 mph - N/A   Overcast
1:13 PM 46.4 °F 41.9 °F 30.2 °F 53% 29.85 in 10.0 mi South 9.2 mph - N/A   Overcast
1:33 PM 46.4 °F 41.1 °F 30.2 °F 53% 29.85 in 10.0 mi SSW 11.5 mph - N/A   Overcast
1:54 PM 46.4 °F 40.7 °F 30.2 °F 53% 29.83 in 10.0 mi South 12.7 mph - N/A   Overcast
2:13 PM 46.4 °F 40.4 °F 32.0 °F 57% 29.84 in 10.0 mi SSW 13.8 mph 21.9 mph N/A   Overcast
2:34 PM 46.4 °F 40.4 °F 32.0 °F 57% 29.84 in 10.0 mi South 13.8 mph 23.0 mph N/A   Overcast
2:53 PM 46.4 °F 39.8 °F 33.8 °F 62% 29.84 in 10.0 mi South 16.1 mph 21.9 mph N/A   Overcast
3:13 PM 46.4 °F 40.7 °F 32.0 °F 57% 29.84 in 10.0 mi South 12.7 mph - N/A   Overcast
3:34 PM 44.6 °F 37.8 °F 33.8 °F 66% 29.84 in 10.0 mi South 15.0 mph - N/A   Overcast
3:53 PM 44.6 °F 39.2 °F 33.8 °F 66% 29.83 in 10.0 mi South 10.4 mph 17.3 mph N/A Rain Light Rain
4:13 PM 44.6 °F 38.8 °F 33.8 °F 66% 29.84 in 10.0 mi SSW 11.5 mph - N/A   Overcast
4:34 PM 46.4 °F 41.5 °F 33.8 °F 62% 29.83 in 10.0 mi South 10.4 mph 16.1 mph N/A   Overcast
4:53 PM 46.4 °F 41.5 °F 33.8 °F 62% 29.82 in 10.0 mi South 10.4 mph 17.3 mph N/A   Drizzle
5:13 PM 44.6 °F 38.4 °F 35.6 °F 71% 29.81 in 10.0 mi South 12.7 mph 19.6 mph N/A Rain Light Rain
5:34 PM 44.6 °F 39.2 °F 37.4 °F 76% 29.79 in 10.0 mi South 10.4 mph 16.1 mph N/A Rain Light Rain
5:53 PM 44.6 °F 38.4 °F 35.6 °F 71% 29.79 in 10.0 mi South 12.7 mph - N/A   Overcast
6:13 PM 46.4 °F 40.7 °F 35.6 °F 66% 29.79 in 10.0 mi South 12.7 mph 20.7 mph N/A   Overcast
6:34 PM 46.4 °F 40.1 °F 35.6 °F 66% 29.78 in 10.0 mi South 15.0 mph - N/A   Overcast
6:53 PM 46.4 °F 40.7 °F 35.6 °F 66% 29.78 in 10.0 mi South 12.7 mph - N/A   Overcast
7:13 PM 46.4 °F 40.7 °F 35.6 °F 66% 29.75 in 10.0 mi South 12.7 mph 19.6 mph N/A   Overcast
7:34 PM 46.4 °F 39.5 °F 35.6 °F 66% 29.75 in 10.0 mi South 17.3 mph 23.0 mph N/A   Overcast
7:53 PM 46.4 °F 39.2 °F 37.4 °F 71% 29.75 in 10.0 mi South 18.4 mph 28.8 mph N/A   Overcast
8:13 PM 46.4 °F 39.8 °F 39.2 °F 76% 29.74 in 10.0 mi SSW 16.1 mph 28.8 mph N/A   Overcast
8:34 PM 46.4 °F 38.3 °F 41.0 °F 81% 29.74 in 10.0 mi SSW 23.0 mph 28.8 mph N/A   Overcast
8:53 PM 46.4 °F 39.8 °F 41.0 °F 81% 29.73 in 10.0 mi SSW 16.1 mph 23.0 mph N/A   Overcast
9:13 PM 46.4 °F 39.5 °F 41.0 °F 81% 29.72 in 10.0 mi SSW 17.3 mph 25.3 mph N/A   Overcast
9:34 PM 46.4 °F 39.5 °F 41.0 °F 81% 29.72 in 10.0 mi SSW 17.3 mph 26.5 mph N/A   Overcast
9:53 PM 46.4 °F 40.1 °F 41.0 °F 81% 29.72 in 10.0 mi SSW 15.0 mph 26.5 mph N/A   Overcast
10:13 PM 46.4 °F 40.1 °F 41.0 °F 81% 29.72 in 10.0 mi SSW 15.0 mph 21.9 mph N/A   Light Drizzle
10:33 PM 46.4 °F 41.5 °F 41.0 °F 81% 29.71 in 10.0 mi SSW 10.4 mph - N/A   Overcast
10:53 PM 44.6 °F 38.1 °F 41.0 °F 87% 29.70 in 7.0 mi SSW 13.8 mph 19.6 mph N/A Rain Light Rain
11:13 PM 44.6 °F 39.2 °F 42.8 °F 93% 29.70 in 10.0 mi SSW 10.4 mph - N/A   Overcast
11:33 PM 44.6 °F 39.2 °F 42.8 °F 93% 29.70 in 10.0 mi SSW 10.4 mph - N/A   Drizzle
11:53 PM 44.6 °F 39.2 °F 42.8 °F 93% 29.69 in 10.0 mi SSW 10.4 mph 16.1 mph N/A   Light Drizzle